This is the latest recevied weather packets stored in our database for station/object IA5KRO-13. If no packets are shown the sender has not sent any weather packets the latest 1 day(s).
| Time | Temp. | Humidity | Pressure | Rain* | Wind** | Luminosity | Snow |
|---|---|---|---|---|---|---|---|
| 1778006712 | 17.78° C | 83% | 1020 hPa | 0 mm | 0.45 m/s, 167° | - | - |
| 1778006412 | 17.78° C | 84% | 1020 hPa | 0 mm | 0.89 m/s, 121° | - | - |
| 1778006109 | 17.78° C | 85% | 1020 hPa | 0 mm | 1.34 m/s, 118° | - | - |
| 1778005824 | 17.78° C | 86% | 1020 hPa | 0 mm | 0.45 m/s, 173° | - | - |
| 1778005213 | 17.78° C | 86% | 1020 hPa | 0 mm | 0.45 m/s, 153° | - | - |
| 1778004913 | 17.78° C | 86% | 1020 hPa | 0 mm | 0 m/s | - | - |
| 1778004614 | 17.78° C | 87% | 1019.6 hPa | 0 mm | 0 m/s | - | - |
| 1778004309 | 17.78° C | 85% | 1019.6 hPa | 0 mm | 0.89 m/s, 203° | - | - |
| 1778004033 | 17.78° C | 85% | 1019.6 hPa | 0 mm | 1.79 m/s, 119° | - | - |
| 1778003711 | 17.78° C | 84% | 1019.6 hPa | 0 mm | 0.89 m/s, 250° | - | - |
| 1778003113 | 18.89° C | 81% | 1020 hPa | 0 mm | 1.79 m/s, 137° | - | - |
| 1778002813 | 18.89° C | 83% | 1020 hPa | 0 mm | 0.45 m/s, 91° | - | - |
| 1778002510 | 18.89° C | 86% | 1020 hPa | 0 mm | 0 m/s | - | - |
| 1778002223 | 18.89° C | 81% | 1020 hPa | 0 mm | 0.45 m/s, 178° | - | - |
| 1778001910 | 18.89° C | 82% | 1020 hPa | 0 mm | 0.89 m/s, 78° | - | - |
| 1778001613 | 18.89° C | 83% | 1020 hPa | 0 mm | 0 m/s | - | - |
| 1778001313 | 18.89° C | 83% | 1020 hPa | 0 mm | 0.45 m/s, 156° | - | - |
| 1778001014 | 18.89° C | 82% | 1020 hPa | 0 mm | 0.45 m/s, 279° | - | - |
| 1778000710 | 18.89° C | 83% | 1020 hPa | 0 mm | 0.89 m/s, 233° | - | - |
| 1778000434 | 18.89° C | 84% | 1020 hPa | 0 mm | 0.45 m/s, 162° | - | - |
| 1777999812 | 18.89° C | 84% | 1020 hPa | 0.25 mm | 0.45 m/s, 235° | - | - |
| 1777999514 | 18.89° C | 84% | 1020 hPa | 0 mm | 1.79 m/s, 279° | - | - |
| 1777999213 | 17.78° C | 83% | 1020 hPa | 0 mm | 1.79 m/s, 262° | - | - |
| 1777998910 | 18.89° C | 84% | 1020 hPa | 0 mm | 1.79 m/s, 197° | - | - |
| 1777998624 | 17.78° C | 85% | 1020 hPa | 0 mm | 1.79 m/s, 220° | - | - |
* Rain latest hour (hover to see other rain measurements)
** Current wind speed in m/s (hover to see current wind gust speed)